MAPL56 YWLM-YAMB

Flight info

Callsign MAPL56
Flight time 1h 8m
Altitude 40000
Route NELSN DCT 324153S1522827E 304344S1532550E DCT SEMAJ DCT LOTMA DCT 274747S1532530E DCT LAGOB DCT 274537S1525050E DCT AMB DCT OK DCT SOOTY DCT AMB
Aircraft F35/M-SADILOTUV/C

Departure

Time 2026-04-26 05:41
Airport Newcastle Airport (YWLM)

Arrival

Time 2026-04-26 06:50
Airport RAAF Base Amberley (YAMB)
Time Latitude Longitude Altitude Speed Heading
2026-04-26 05:32 -32.79043 151.83843 31 ft 0 kts 55°
2026-04-26 05:36 -32.79042 151.83845 31 ft 3 kts 55°
2026-04-26 05:36 -32.79037 151.83871 31 ft 4 kts 112°
2026-04-26 05:36 -32.79066 151.83883 31 ft 6 kts 212°
2026-04-26 05:36 -32.79098 151.83833 31 ft 9 kts 234°
2026-04-26 05:37 -32.79131 151.83778 31 ft 8 kts 234°
2026-04-26 05:37 -32.79164 151.83739 31 ft 6 kts 220°
2026-04-26 05:37 -32.79197 151.83706 31 ft 5 kts 220°
2026-04-26 05:37 -32.79220 151.83682 31 ft 4 kts 220°
2026-04-26 05:38 -32.79263 151.83638 32 ft 15 kts 220°
2026-04-26 05:38 -32.79370 151.83531 28 ft 20 kts 222°
2026-04-26 05:38 -32.79358 151.83447 28 ft 17 kts 310°
2026-04-26 05:38 -32.79266 151.83317 31 ft 13 kts 310°
2026-04-26 05:39 -32.79212 151.83243 32 ft 11 kts 310°
2026-04-26 05:39 -32.79157 151.83166 32 ft 14 kts 310°
2026-04-26 05:39 -32.79111 151.83102 32 ft 17 kts 310°
2026-04-26 05:39 -32.79027 151.82986 33 ft 20 kts 311°
2026-04-26 05:40 -32.78928 151.82849 29 ft 22 kts 310°
2026-04-26 05:40 -32.78830 151.82710 29 ft 22 kts 310°
2026-04-26 05:40 -32.78813 151.82567 26 ft 20 kts 218°
2026-04-26 05:40 -32.78927 151.82556 25 ft 16 kts 124°
2026-04-26 05:41 -32.78946 151.82585 26 ft 26 kts 129°
2026-04-26 05:41 -32.79502 151.83365 54 ft 214 kts 129°
2026-04-26 05:41 -32.80715 151.85078 276 ft 318 kts 128°
2026-04-26 05:41 -32.82244 151.87246 721 ft 345 kts 128°
2026-04-26 05:42 -32.83639 151.89509 1212 ft 336 kts 94°
2026-04-26 05:42 -32.82925 151.92221 1365 ft 349 kts 69°
2026-04-26 05:42 -32.82025 151.94905 1318 ft 350 kts 68°
2026-04-26 05:42 -32.81115 151.97588 1270 ft 351 kts 68°
2026-04-26 05:43 -32.80203 152.00267 1238 ft 350 kts 68°
2026-04-26 05:43 -32.79295 152.02939 1197 ft 349 kts 68°
2026-04-26 05:43 -32.78485 152.05647 1305 ft 336 kts 75°
2026-04-26 05:43 -32.77920 152.08247 4448 ft 328 kts 75°
2026-04-26 05:44 -32.77337 152.10948 8069 ft 353 kts 75°
2026-04-26 05:44 -32.76691 152.13916 11449 ft 390 kts 76°
2026-04-26 05:44 -32.76005 152.17083 14538 ft 409 kts 76°
2026-04-26 05:44 -32.75287 152.20398 17626 ft 431 kts 76°
2026-04-26 05:45 -32.74532 152.23891 20393 ft 439 kts 76°
2026-04-26 05:45 -32.73736 152.27584 22643 ft 480 kts 76°
2026-04-26 05:45 -32.72906 152.31443 23569 ft 480 kts 76°
2026-04-26 05:45 -32.72073 152.35323 24313 ft 487 kts 76°
2026-04-26 05:46 -32.71234 152.39237 25014 ft 489 kts 77°
2026-04-26 05:46 -32.70398 152.43122 25727 ft 496 kts 75°
2026-04-26 05:46 -32.68952 152.46866 26294 ft 506 kts 55°
2026-04-26 05:46 -32.66419 152.49770 26763 ft 512 kts 32°
2026-04-26 05:47 -32.63176 152.51592 27370 ft 518 kts 24°
2026-04-26 05:47 -32.59844 152.53281 28156 ft 524 kts 24°
2026-04-26 05:47 -32.56467 152.54994 28976 ft 531 kts 24°
2026-04-26 05:47 -32.53037 152.56736 29816 ft 540 kts 24°
2026-04-26 05:48 -32.49567 152.58500 30621 ft 545 kts 24°
2026-04-26 05:48 -32.46060 152.60285 31356 ft 551 kts 24°
2026-04-26 05:48 -32.42559 152.62068 32103 ft 556 kts 24°
2026-04-26 05:48 -32.38985 152.63889 32888 ft 563 kts 24°
2026-04-26 05:49 -32.35370 152.65733 33683 ft 557 kts 24°
2026-04-26 05:49 -32.28469 152.69248 35176 ft 542 kts 24°
2026-04-26 05:49 -32.25000 152.71016 35913 ft 541 kts 24°
2026-04-26 05:50 -32.21548 152.72776 36683 ft 540 kts 24°
2026-04-26 05:50 -32.18093 152.74538 37476 ft 540 kts 23°
2026-04-26 05:50 -32.14646 152.76297 38295 ft 538 kts 23°
2026-04-26 05:50 -32.11211 152.78050 39099 ft 538 kts 23°
2026-04-26 05:51 -32.07814 152.79785 39793 ft 538 kts 23°
2026-04-26 05:51 -32.04373 152.81543 40524 ft 537 kts 23°
2026-04-26 05:51 -32.00952 152.83291 41290 ft 535 kts 22°
2026-04-26 05:51 -31.97527 152.85042 42075 ft 538 kts 22°
2026-04-26 05:52 -31.94017 152.86835 42814 ft 553 kts 22°
2026-04-26 05:52 -31.90492 152.88636 43121 ft 554 kts 22°
2026-04-26 05:52 -31.86943 152.90449 43234 ft 555 kts 22°
2026-04-26 05:53 -31.79897 152.94050 43259 ft 554 kts 22°
2026-04-26 05:53 -31.72829 152.97665 43262 ft 553 kts 22°
2026-04-26 05:54 -31.65762 153.01281 43265 ft 553 kts 22°
2026-04-26 05:54 -31.58695 153.04753 43262 ft 553 kts 20°
2026-04-26 05:55 -31.51511 153.08010 43262 ft 553 kts 20°
2026-04-26 05:55 -31.44330 153.11268 43257 ft 553 kts 20°
2026-04-26 05:56 -31.37150 153.14526 43265 ft 554 kts 20°
2026-04-26 05:56 -31.29959 153.17791 43264 ft 555 kts 20°
2026-04-26 05:57 -31.22762 153.21060 43250 ft 554 kts 20°
2026-04-26 05:57 -31.15563 153.24333 43257 ft 555 kts 20°
2026-04-26 05:58 -31.08399 153.27591 43254 ft 555 kts 20°
2026-04-26 05:58 -31.01203 153.30866 43248 ft 555 kts 20°
2026-04-26 05:59 -30.94046 153.34125 43251 ft 555 kts 20°
2026-04-26 05:59 -30.86847 153.37404 43250 ft 555 kts 20°
2026-04-26 06:00 -30.79647 153.40686 43247 ft 555 kts 20°
2026-04-26 06:00 -30.72449 153.43969 43255 ft 555 kts 20°
2026-04-26 06:01 -30.65240 153.47255 43252 ft 557 kts 19°
2026-04-26 06:01 -30.57865 153.49678 43227 ft 553 kts
2026-04-26 06:02 -30.50301 153.51329 43242 ft 553 kts
2026-04-26 06:02 -30.42732 153.52978 43245 ft 553 kts
2026-04-26 06:03 -30.35157 153.54632 43242 ft 553 kts
2026-04-26 06:03 -30.27572 153.56289 42867 ft 558 kts
2026-04-26 06:03 -30.23802 153.57113 42084 ft 559 kts
2026-04-26 06:04 -30.19979 153.57949 41308 ft 558 kts
2026-04-26 06:04 -30.16157 153.58785 40560 ft 559 kts
2026-04-26 06:04 -30.12338 153.59622 39842 ft 560 kts
2026-04-26 06:04 -30.08505 153.60461 39145 ft 562 kts
2026-04-26 06:05 -30.04655 153.61305 38347 ft 563 kts
2026-04-26 06:05 -30.00793 153.62151 37533 ft 565 kts
2026-04-26 06:05 -29.96913 153.63001 36747 ft 568 kts
2026-04-26 06:05 -29.93015 153.63854 35988 ft 571 kts
2026-04-26 06:06 -29.89096 153.64712 35256 ft 574 kts
2026-04-26 06:06 -29.85218 153.65560 34549 ft 576 kts 10°
2026-04-26 06:06 -29.81266 153.66425 33782 ft 578 kts
2026-04-26 06:06 -29.77299 153.67294 32986 ft 580 kts 10°
2026-04-26 06:07 -29.73331 153.68164 32211 ft 581 kts 10°
2026-04-26 06:07 -29.69369 153.69033 31461 ft 576 kts 10°
2026-04-26 06:07 -29.65447 153.69894 30732 ft 569 kts 10°
2026-04-26 06:07 -29.61568 153.70746 29963 ft 563 kts 10°
2026-04-26 06:08 -29.57799 153.71575 29143 ft 554 kts 10°
2026-04-26 06:08 -29.54038 153.72403 28335 ft 547 kts 10°
2026-04-26 06:08 -29.50324 153.73222 27543 ft 538 kts 11°
2026-04-26 06:08 -29.46671 153.74028 26807 ft 531 kts 11°
2026-04-26 06:09 -29.43067 153.74824 26433 ft 526 kts 11°
2026-04-26 06:09 -29.39468 153.75619 26291 ft 526 kts 11°
2026-04-26 06:09 -29.35873 153.76414 26239 ft 525 kts 11°
2026-04-26 06:09 -29.32274 153.77211 26217 ft 527 kts 11°
2026-04-26 06:10 -29.28665 153.78011 26213 ft 527 kts 11°
2026-04-26 06:10 -29.25060 153.78810 26210 ft 527 kts 11°
2026-04-26 06:10 -29.21508 153.79599 26206 ft 527 kts 11°
2026-04-26 06:10 -29.17859 153.80409 26205 ft 527 kts 11°
2026-04-26 06:11 -29.14258 153.81210 26205 ft 527 kts 11°
2026-04-26 06:11 -29.10661 153.82010 26205 ft 527 kts 11°
2026-04-26 06:11 -29.07108 153.82802 26206 ft 528 kts 11°
2026-04-26 06:11 -29.03487 153.83609 26200 ft 529 kts 11°
2026-04-26 06:12 -28.99878 153.84415 26202 ft 527 kts 11°
2026-04-26 06:12 -28.96264 153.85222 26200 ft 529 kts 11°
2026-04-26 06:12 -28.92651 153.86030 26196 ft 528 kts 11°
2026-04-26 06:12 -28.89053 153.86835 26197 ft 528 kts 11°
2026-04-26 06:13 -28.85436 153.87603 26191 ft 528 kts
2026-04-26 06:13 -28.81783 153.88058 26183 ft 527 kts
2026-04-26 06:13 -28.78119 153.88441 26188 ft 529 kts
2026-04-26 06:13 -28.74455 153.88825 26193 ft 527 kts
2026-04-26 06:14 -28.70838 153.89205 26193 ft 529 kts
2026-04-26 06:14 -28.67167 153.89591 26195 ft 528 kts
2026-04-26 06:14 -28.63511 153.89976 26194 ft 528 kts
2026-04-26 06:14 -28.59844 153.90364 26191 ft 529 kts
2026-04-26 06:15 -28.56182 153.90475 26115 ft 526 kts 352°
2026-04-26 06:15 -28.52651 153.89494 26023 ft 520 kts 335°
2026-04-26 06:15 -28.49464 153.87583 26037 ft 518 kts 328°
2026-04-26 06:15 -28.46310 153.85570 26122 ft 520 kts 328°
2026-04-26 06:16 -28.43191 153.83581 25640 ft 516 kts 328°
2026-04-26 06:16 -28.40078 153.81599 24927 ft 512 kts 329°
2026-04-26 06:16 -28.36987 153.79634 24228 ft 505 kts 329°
2026-04-26 06:16 -28.33921 153.77687 23503 ft 505 kts 329°
2026-04-26 06:17 -28.30840 153.75853 22652 ft 498 kts 338°
2026-04-26 06:17 -28.27477 153.75014 21662 ft 490 kts 352°
2026-04-26 06:17 -28.24107 153.74511 20897 ft 486 kts 352°
2026-04-26 06:17 -28.20774 153.74016 20438 ft 484 kts 352°
2026-04-26 06:18 -28.17459 153.73524 20268 ft 482 kts 353°
2026-04-26 06:18 -28.14133 153.73030 20207 ft 479 kts 352°
2026-04-26 06:18 -28.10924 153.71982 20092 ft 477 kts 334°
2026-04-26 06:18 -28.08207 153.69904 20024 ft 482 kts 319°
2026-04-26 06:19 -28.05674 153.67450 20104 ft 479 kts 319°
2026-04-26 06:19 -28.03136 153.64990 20150 ft 481 kts 319°
2026-04-26 06:19 -28.00592 153.62528 20170 ft 478 kts 319°
2026-04-26 06:19 -27.98059 153.60077 20176 ft 481 kts 319°
2026-04-26 06:20 -27.95517 153.57619 20183 ft 480 kts 319°
2026-04-26 06:20 -27.92987 153.55175 20179 ft 480 kts 319°
2026-04-26 06:20 -27.90437 153.52712 20176 ft 480 kts 319°
2026-04-26 06:20 -27.87904 153.50267 20173 ft 478 kts 319°
2026-04-26 06:21 -27.85360 153.47815 20183 ft 483 kts 319°
2026-04-26 06:21 -27.82852 153.45398 20184 ft 478 kts 319°
2026-04-26 06:21 -27.80313 153.42953 20182 ft 482 kts 319°
2026-04-26 06:21 -27.77728 153.40464 20175 ft 480 kts 319°
2026-04-26 06:22 -27.75338 153.37919 20114 ft 481 kts 308°
2026-04-26 06:22 -27.73676 153.34682 20006 ft 476 kts 288°
2026-04-26 06:22 -27.73080 153.31038 19945 ft 473 kts 268°
2026-04-26 06:22 -27.73245 153.27345 20044 ft 472 kts 264°
2026-04-26 06:23 -27.73465 153.23653 20111 ft 471 kts 265°
2026-04-26 06:23 -27.73684 153.19970 19785 ft 466 kts 264°
2026-04-26 06:23 -27.73901 153.16291 19983 ft 472 kts 264°
2026-04-26 06:23 -27.74118 153.12604 20101 ft 472 kts 264°
2026-04-26 06:24 -27.74336 153.08909 20146 ft 471 kts 264°
2026-04-26 06:24 -27.74552 153.05215 20165 ft 472 kts 264°
2026-04-26 06:24 -27.74768 153.01514 20174 ft 472 kts 264°
2026-04-26 06:24 -27.74983 152.97819 20173 ft 471 kts 265°
2026-04-26 06:25 -27.75198 152.94124 20176 ft 473 kts 264°
2026-04-26 06:25 -27.75411 152.90427 20177 ft 472 kts 264°
2026-04-26 06:25 -27.75382 152.86720 20116 ft 474 kts 277°
2026-04-26 06:25 -27.74495 152.83156 20047 ft 475 kts 293°
2026-04-26 06:26 -27.72734 152.80008 19935 ft 477 kts 310°
2026-04-26 06:26 -27.70309 152.77450 19293 ft 475 kts 320°
2026-04-26 06:26 -27.68625 152.75864 18824 ft 472 kts 320°
2026-04-26 06:26 -27.65279 152.72714 17822 ft 465 kts 320°
2026-04-26 06:27 -27.63247 152.69996 16805 ft 458 kts 296°
2026-04-26 06:27 -27.62327 152.66607 15834 ft 452 kts 283°
2026-04-26 06:27 -27.61577 152.63188 15096 ft 445 kts 283°
2026-04-26 06:27 -27.60833 152.59799 14381 ft 444 kts 283°
2026-04-26 06:28 -27.60335 152.57537 13912 ft 438 kts 283°
2026-04-26 06:28 -27.59606 152.54229 13143 ft 438 kts 283°
2026-04-26 06:28 -27.58874 152.50912 12380 ft 436 kts 283°
2026-04-26 06:28 -27.58144 152.47606 11634 ft 431 kts 283°
2026-04-26 06:29 -27.57423 152.44348 10905 ft 427 kts 283°
2026-04-26 06:29 -27.56710 152.41125 10202 ft 419 kts 284°
2026-04-26 06:29 -27.56003 152.37941 9526 ft 419 kts 284°
2026-04-26 06:29 -27.55302 152.34781 8714 ft 413 kts 284°
2026-04-26 06:30 -27.54605 152.31648 7969 ft 409 kts 284°
2026-04-26 06:30 -27.53915 152.28549 7278 ft 406 kts 284°
2026-04-26 06:30 -27.53228 152.25469 6897 ft 406 kts 283°
2026-04-26 06:30 -27.52541 152.22395 6575 ft 404 kts 284°
2026-04-26 06:31 -27.51855 152.19332 6264 ft 402 kts 283°
2026-04-26 06:31 -27.51170 152.16274 5958 ft 402 kts 284°
2026-04-26 06:31 -27.50487 152.13229 5658 ft 401 kts 284°
2026-04-26 06:31 -27.49806 152.10199 5413 ft 398 kts 284°
2026-04-26 06:32 -27.49125 152.07172 5176 ft 397 kts 284°
2026-04-26 06:32 -27.48445 152.04153 4918 ft 397 kts 284°
2026-04-26 06:32 -27.47767 152.01148 4660 ft 396 kts 284°
2026-04-26 06:32 -27.47274 151.98112 4521 ft 394 kts 274°
2026-04-26 06:33 -27.47033 151.95043 4525 ft 391 kts 274°
2026-04-26 06:33 -27.46795 151.92023 4502 ft 393 kts 274°
2026-04-26 06:33 -27.46552 151.88946 4489 ft 393 kts 274°
2026-04-26 06:33 -27.46309 151.85880 4509 ft 393 kts 274°
2026-04-26 06:34 -27.46065 151.82804 4535 ft 391 kts 274°
2026-04-26 06:34 -27.45821 151.79747 4547 ft 392 kts 274°
2026-04-26 06:34 -27.45575 151.76672 4537 ft 394 kts 274°
2026-04-26 06:34 -27.45330 151.73609 4534 ft 391 kts 274°
2026-04-26 06:35 -27.45084 151.70545 4518 ft 393 kts 274°
2026-04-26 06:35 -27.44586 151.67664 4201 ft 346 kts 296°
2026-04-26 06:35 -27.43025 151.65964 3575 ft 302 kts 344°
2026-04-26 06:35 -27.41222 151.66112 3241 ft 228 kts 38°
2026-04-26 06:36 -27.40493 151.67329 2891 ft 165 kts 86°
2026-04-26 06:36 -27.40563 151.68491 2605 ft 138 kts 95°
2026-04-26 06:36 -27.40619 151.69674 2268 ft 169 kts 92°
2026-04-26 06:36 -27.40706 151.71021 1727 ft 171 kts 98°
2026-04-26 06:37 -27.40886 151.72315 1425 ft 190 kts 99°
2026-04-26 06:37 -27.41202 151.74409 2386 ft 345 kts 100°
2026-04-26 06:37 -27.41612 151.77038 3837 ft 343 kts 100°
2026-04-26 06:37 -27.41855 151.79731 4786 ft 355 kts 88°
2026-04-26 06:38 -27.41396 151.82476 5463 ft 361 kts 79°
2026-04-26 06:38 -27.40867 151.85239 6219 ft 364 kts 79°
2026-04-26 06:38 -27.40358 151.88052 6939 ft 370 kts 81°
2026-04-26 06:38 -27.40355 151.90931 7442 ft 371 kts 95°
2026-04-26 06:39 -27.40467 151.93851 7784 ft 376 kts 93°
2026-04-26 06:39 -27.40586 151.96792 7922 ft 376 kts 94°
2026-04-26 06:39 -27.40733 151.99726 7969 ft 375 kts 94°
2026-04-26 06:39 -27.40909 152.02673 7982 ft 376 kts 95°
2026-04-26 06:40 -27.41114 152.05610 7991 ft 376 kts 95°
2026-04-26 06:40 -27.41341 152.08546 8001 ft 378 kts 95°
2026-04-26 06:40 -27.41446 152.11492 7984 ft 377 kts 91°
2026-04-26 06:40 -27.41441 152.14395 7991 ft 378 kts 91°
2026-04-26 06:41 -27.41459 152.17319 7987 ft 374 kts 91°
2026-04-26 06:41 -27.41507 152.20245 8014 ft 373 kts 92°
2026-04-26 06:41 -27.41585 152.23178 8022 ft 374 kts 93°
2026-04-26 06:41 -27.41691 152.26098 7999 ft 373 kts 94°
2026-04-26 06:42 -27.41827 152.29020 8003 ft 375 kts 94°
2026-04-26 06:42 -27.41991 152.31944 7993 ft 374 kts 95°
2026-04-26 06:42 -27.42185 152.34857 7990 ft 374 kts 95°
2026-04-26 06:42 -27.42328 152.37775 7992 ft 375 kts 90°
2026-04-26 06:43 -27.42174 152.40695 7980 ft 375 kts 87°
2026-04-26 06:43 -27.42019 152.43612 7983 ft 374 kts 88°
2026-04-26 06:43 -27.41892 152.46536 7984 ft 374 kts 89°
2026-04-26 06:43 -27.41794 152.49465 7987 ft 372 kts 89°
2026-04-26 06:44 -27.41727 152.52381 7996 ft 375 kts 90°
2026-04-26 06:44 -27.41688 152.55310 8019 ft 374 kts 90°
2026-04-26 06:44 -27.41698 152.58244 8000 ft 375 kts 95°
2026-04-26 06:44 -27.42504 152.60978 7821 ft 370 kts 123°
2026-04-26 06:45 -27.44425 152.62896 7709 ft 377 kts 152°
2026-04-26 06:45 -27.46931 152.63781 7677 ft 377 kts 162°
2026-04-26 06:45 -27.49373 152.64557 6826 ft 359 kts 162°
2026-04-26 06:45 -27.51746 152.65358 5601 ft 352 kts 156°
2026-04-26 06:46 -27.53957 152.66423 4334 ft 349 kts 154°
2026-04-26 06:46 -27.56168 152.67512 3109 ft 346 kts 155°
2026-04-26 06:46 -27.58364 152.68599 1898 ft 343 kts 154°
2026-04-26 06:46 -27.60489 152.69739 1181 ft 329 kts 153°
2026-04-26 06:47 -27.62603 152.70893 1123 ft 346 kts 154°
2026-04-26 06:47 -27.64877 152.71344 1343 ft 336 kts 202°
2026-04-26 06:47 -27.65753 152.69216 1224 ft 324 kts 295°
2026-04-26 06:47 -27.63990 152.67909 1252 ft 314 kts 338°
2026-04-26 06:48 -27.61925 152.66919 1296 ft 328 kts 338°
2026-04-26 06:48 -27.59972 152.66504 1285 ft 243 kts 23°
2026-04-26 06:48 -27.59084 152.67595 1172 ft 166 kts 89°
2026-04-26 06:48 -27.59419 152.68705 942 ft 153 kts 119°
2026-04-26 06:49 -27.60206 152.69627 702 ft 182 kts 147°
2026-04-26 06:49 -27.61390 152.70181 313 ft 179 kts 154°
2026-04-26 06:49 -27.62437 152.70639 109 ft 138 kts 155°
2026-04-26 06:49 -27.63150 152.70956 96 ft 87 kts 159°
2026-04-26 06:50 -27.63637 152.71169 98 ft 65 kts 158°
2026-04-26 06:50 -27.64015 152.71334 101 ft 53 kts 159°
2026-04-26 06:50 -27.64331 152.71470 100 ft 44 kts 159°
2026-04-26 06:50 -27.64600 152.71585 99 ft 39 kts 159°
2026-04-26 06:51 -27.64735 152.71605 101 ft 16 kts 233°
2026-04-26 06:51 -27.64672 152.71406 97 ft 18 kts 339°
2026-04-26 06:51 -27.64556 152.71356 98 ft 18 kts 339°
2026-04-26 06:52 -27.64440 152.71305 98 ft 18 kts 339°
2026-04-26 06:52 -27.64338 152.71261 99 ft 0 kts 339°
2026-04-26 06:52 -27.64327 152.71256 100 ft 8 kts 339°
2026-04-26 06:53 -27.64219 152.71209 102 ft 23 kts 340°
2026-04-26 06:53 -27.64069 152.71144 102 ft 23 kts 339°
2026-04-26 06:53 -27.63918 152.71078 103 ft 23 kts 338°
2026-04-26 06:53 -27.63760 152.71008 99 ft 26 kts 338°
2026-04-26 06:54 -27.63591 152.70933 98 ft 26 kts 339°
2026-04-26 06:54 -27.63417 152.70853 96 ft 28 kts 339°
2026-04-26 06:54 -27.63239 152.70778 97 ft 27 kts 339°
2026-04-26 06:54 -27.63160 152.70667 98 ft 11 kts 333°
2026-04-26 06:55 -27.63108 152.70623 99 ft 8 kts 261°
2026-04-26 06:55 -27.63114 152.70580 100 ft 3 kts 317°
2026-04-26 06:55 -27.63100 152.70579 100 ft 2 kts
2026-04-26 06:55 -27.63082 152.70583 100 ft 0 kts